SCFASCDA

Guest
Details From SCFA - CERRO MORENO INTL
To SCDA - DIEGO ARACENA INTL
Flight Number -
Tags decoded
Created
Modified
Stats Distance 175 nm / 325 km
Max Altitude 0 ft / 0 m
Waypoints 2
Social Downloads 0
Likes 0
Share VATSIM

Download

Looking for another format? Having issues loading an existing format? Contact us
Advertisement - Login to hide

Notes

Requested: SCFA ARPOM GAXI SCDA Unmatched points: GAXI

Route

SCFA SCDA

ID Type Via Altitude Latitude Longitude Leg Dist Tot Dist Heading (true) Name
O SCFA APT - 0 ft / 0 m -23.44448˚ -70.44510˚ - 0 nm - CERRO MORENO INTL
O SCDA APT - 0 ft / 0 m -20.53523˚ -70.18128˚ 175 nm 175 nm 5° / 5° DIEGO ARACENA INTL

Altitude Profile

Advertisement - Login to hide

Weather


0- 5 10 15 20 25 30 35+ Temperature / ° C

Clouds and Precipitation
Forecast for 2018-05-23 12:00 UTC. Updated 3 hours ago

Ground ~20,000 ft ~40,000 ft Winds

SCFA

Details ICAO SCFA (ANF)
Name CERRO MORENO INTL
Region Chile
Timezone America/Santiago (UTC-4.0)
Stats Elevation 455 ft / 139 m (AMSL)
Location -23.444477° -70.445100°
Runways 1
Magnetic Variation 3.555° W

METAR

SCFA 231300Z 26003KT 9999 BKN020 15/10 Q1017 NOSIG

Decode

TAF

Not found

Departure Runways

ID Width Length Bearing (true) Bearing (mag) Surface Threshold Offset Overrun Length
01 164 ft / 50 m 8,567 ft / 2,611 m 6.86° 10.42° Asphalt 0 ft / 0 m 50 ft / 15 m
19 164 ft / 50 m 8,567 ft / 2,611 m 186.86° 190.42° Asphalt 0 ft / 0 m 155 ft / 47 m

SCDA

Details ICAO SCDA (IQQ)
Name DIEGO ARACENA INTL
Region Chile
Timezone America/Santiago (UTC-4.0)
Stats Elevation 155 ft / 47 m (AMSL)
Location -20.535228° -70.181279°
Runways 1
Magnetic Variation 4.945° W

METAR

SCDA 231300Z 16005KT 9999 FEW016 17/12 Q1017

Decode

TAF

TAF SCDA 231042Z 2312/2412 16004KT 9999 OVC018 TX20/2317Z TN15/2406Z BECMG 2314/2316 22015KT CAVOK BECMG 2322/2400 19010KT OVC025 BECMG 2404/2406 12004KT BECMG 2410/2412 16004KT

Decode

Destination Runways

ID Width Length Bearing (true) Bearing (mag) Surface Threshold Offset Overrun Length
18 148 ft / 45 m 11,048 ft / 3,368 m 182.87° 187.82° Asphalt 0 ft / 0 m 200 ft / 61 m
36 148 ft / 45 m 11,048 ft / 3,368 m 2.87° 7.82° Asphalt 0 ft / 0 m 590 ft / 180 m

Approach Navaids

Runway Type Ident Frequency Range Bearing (true) Bearing (mag) Slope Elevation
18 Localiser IIQQ 109.90 MHz 18 nm / 33 km 182.85° 187.80° - 174 ft / 53 m (AMSL)
18 Glidescope IIQQ 109.90 MHz 10 nm / 19 km 182.87° 187.82° 3.20° 105 ft / 32 m (AMSL)
18 DME IIQQ 109.90 MHz 18 nm / 33 km - - - 105 ft / 32 m (AMSL)

Popular Alternatives